Hillsdale, MI

12:51 PM EST on November 15, 2019 (GMT -0500)
Hillsdale Municipal

Weather History for KJYM - September, 2019

Change the Weather History Date:

Wednesday, September 4, 2019

  Actual Average Record
Temperature  
Mean Temperature 64 °F -  
Max Temperature 73 °F 77 °F 91 °F (1960)
Min Temperature 52 °F 53 °F 38 °F (1974)
Degree Days  
Heating Degree Days 1    
Growing Degree Days 14 (Base 50)    
Moisture  
Dew Point 57 °F    
Average Humidity 79    
Maximum Humidity 96    
Minimum Humidity 66    
Precipitation  
Precipitation 0.00 in - - ()
Sea Level Pressure  
Sea Level Pressure 30.03 in    
Wind  
Wind Speed 7 mph ()    
Max Wind Speed 13 mph    
Max Gust Speed 26 mph    
Visibility 9.9 miles    
Events      
Averages and records for this station are not official NWS values.
T = Trace of Precipitation, MM = Missing Value Source: Averaged Metar Reports

Daily Weather History Graph

Daily Weather History Graph

Search for Another Location

Airport or City:

Astronomy

Sep. 04, 2019 Rise Set
Actual Time 7:06 AM EDT 8:07 PM EDT
Civil Twilight 6:38 AM EDT 8:35 PM EDT
Nautical Twilight 6:04 AM EDT 9:09 PM EDT
Astronomical Twilight 5:28 AM EDT 9:44 PM EDT
Moon 1:12 PM EDT (9/4) 11:35 PM EDT (9/4)
Length of Visible Light 13h 57m
Length of Day
13h 00m
Waxing Crescent, 34% of the Moon is Illuminated
Sep 4
Waxing Crescent
Sep 5
First Quarter
Sep 14
Full
Sep 21
Last Quarter
Sep 28
New

Hourly Weather History & Observations

Time (EDT) Temp. Dew Point Humidity Pressure Visibility Wind Dir Wind Speed Gust Speed Precip Events Conditions
12:18 AM 73.6 °F 70.0 °F 88% 29.83 in 10.0 mi WSW 12.7 mph - N/A   Mostly Cloudy
12:36 AM 74.5 °F 68.7 °F 82% 29.84 in 10.0 mi West 11.5 mph 26.5 mph N/A   Mostly Cloudy
12:55 AM 73.6 °F 64.4 °F 73% 29.86 in 10.0 mi West 12.7 mph 18.4 mph N/A   Scattered Clouds
12:56 AM 73.6 °F 64.4 °F 73% 29.86 in 10.0 mi West 11.5 mph 18.4 mph N/A   Scattered Clouds
1:15 AM 72.3 °F 63.7 °F 74% 29.86 in 10.0 mi WNW 12.7 mph - N/A   Mostly Cloudy
1:39 AM 69.8 °F 63.3 °F 80% 29.86 in 10.0 mi WNW 6.9 mph - N/A   Clear
1:56 AM 68.4 °F 63.0 °F 83% 29.87 in 10.0 mi WNW 6.9 mph - N/A   Clear
2:15 AM 67.1 °F 62.1 °F 84% 29.88 in 10.0 mi WNW 6.9 mph - N/A   Clear
2:16 AM 67.1 °F 62.1 °F 84% 29.88 in 10.0 mi WNW 6.9 mph - N/A   Clear
2:35 AM 65.8 °F 61.9 °F 87% 29.89 in 10.0 mi West 4.6 mph - N/A   Scattered Clouds
2:55 AM 65.5 °F 61.7 °F 88% 29.89 in 10.0 mi West 5.8 mph - N/A   Scattered Clouds
3:18 AM 64.8 °F 61.7 °F 90% 29.89 in 10.0 mi West 5.8 mph - N/A   Scattered Clouds
3:35 AM 63.9 °F 61.0 °F 90% 29.89 in 10.0 mi West 5.8 mph - N/A   Clear
3:55 AM 64.0 °F 61.5 °F 91% 29.90 in 10.0 mi West 5.8 mph - N/A   Mostly Cloudy
3:56 AM 64.0 °F 61.5 °F 91% 29.90 in 10.0 mi West 5.8 mph - N/A   Mostly Cloudy
4:15 AM 63.9 °F 61.7 °F 93% 29.90 in 10.0 mi West 5.8 mph - N/A   Overcast
4:57 AM 62.8 °F 60.8 °F 93% 29.91 in 10.0 mi West 5.8 mph - N/A   Clear
5:15 AM 63.0 °F 60.3 °F 91% 29.91 in 10.0 mi WNW 6.9 mph - N/A   Clear
5:16 AM 63.0 °F 60.3 °F 91% 29.91 in 10.0 mi West 5.8 mph - N/A   Clear
5:35 AM 61.9 °F 59.7 °F 93% 29.92 in 10.0 mi West 5.8 mph - N/A   Clear
5:36 AM 61.7 °F 59.5 °F 93% 29.92 in 10.0 mi West 5.8 mph - N/A   Clear
5:55 AM 61.9 °F 59.4 °F 91% 29.93 in 10.0 mi WNW 9.2 mph - N/A   Clear
6:00 AM 61.9 °F 59.2 °F 91% 29.94 in 10.0 mi WNW 6.9 mph - N/A   Clear
6:18 AM 61.3 °F 58.3 °F 90% 29.94 in 10.0 mi WNW 6.9 mph - N/A   Clear
6:36 AM 61.3 °F 58.1 °F 89% 29.96 in 10.0 mi WNW 6.9 mph - N/A   Clear
6:55 AM 60.1 °F 57.4 °F 91% 29.96 in 10.0 mi WNW 5.8 mph - N/A   Scattered Clouds
6:56 AM 59.9 °F 57.4 °F 91% 29.96 in 10.0 mi WNW 5.8 mph - N/A   Scattered Clouds
7:15 AM 58.1 °F 56.3 °F 94% 29.98 in 10.0 mi Calm Calm - N/A   Clear
7:39 AM 58.3 °F 57.0 °F 96% 29.98 in 5.0 mi WNW 3.5 mph - N/A   Clear
7:57 AM 59.5 °F 57.9 °F 94% 29.99 in 10.0 mi WNW 3.5 mph - N/A   Clear
8:15 AM 61.2 °F 59.0 °F 93% 30.00 in 10.0 mi WNW 5.8 mph - N/A   Clear
8:35 AM 62.1 °F 58.6 °F 89% 30.01 in 10.0 mi NW 6.9 mph - N/A   Clear
8:36 AM 62.1 °F 58.6 °F 89% 30.01 in 10.0 mi NW 6.9 mph - N/A   Clear
8:55 AM 63.0 °F 58.5 °F 85% 30.01 in 10.0 mi NW 8.1 mph - N/A   Clear
9:00 AM 63.1 °F 58.6 °F 85% 30.01 in 10.0 mi NW 5.8 mph - N/A   Clear
9:18 AM 63.9 °F 57.7 °F 80% 30.02 in 10.0 mi NW 6.9 mph - N/A   Clear
9:36 AM 64.4 °F 57.7 °F 79% 30.02 in 10.0 mi NNW 9.2 mph - N/A   Clear
9:55 AM 65.1 °F 57.2 °F 75% 30.03 in 10.0 mi NNW 8.1 mph - N/A   Clear
10:15 AM 66.4 °F 57.7 °F 74% 30.04 in 10.0 mi NNW 10.4 mph - N/A   Scattered Clouds
10:16 AM 66.4 °F 57.6 °F 73% 30.04 in 10.0 mi NNW 10.4 mph - N/A   Scattered Clouds
10:39 AM 66.4 °F 57.6 °F 73% 30.05 in 10.0 mi NW 8.1 mph - N/A   Overcast
10:57 AM 66.7 °F 56.5 °F 70% 30.05 in 10.0 mi NW 12.7 mph - N/A   Overcast
11:15 AM 66.2 °F 56.8 °F 72% 30.06 in 10.0 mi NW 8.1 mph - N/A   Overcast
11:35 AM 66.4 °F 56.7 °F 71% 30.06 in 10.0 mi NNW 10.4 mph - N/A   Overcast
11:36 AM 66.4 °F 56.5 °F 70% 30.06 in 10.0 mi NW 10.4 mph - N/A   Overcast
11:55 AM 66.9 °F 56.7 °F 70% 30.06 in 10.0 mi NNW 12.7 mph 17.3 mph N/A   Overcast
12:18 PM 66.9 °F 57.2 °F 71% 30.07 in 10.0 mi North 9.2 mph - N/A   Overcast
12:36 PM 66.9 °F 56.7 °F 70% 30.07 in 10.0 mi NNW 11.5 mph - N/A   Mostly Cloudy
12:55 PM 65.5 °F 54.9 °F 68% 30.07 in 10.0 mi NW 12.7 mph - N/A   Overcast
12:56 PM 65.3 °F 54.7 °F 68% 30.07 in 10.0 mi NW 11.5 mph - N/A   Overcast
1:15 PM 66.4 °F 55.2 °F 67% 30.08 in 10.0 mi NW 9.2 mph - N/A   Overcast
1:39 PM 65.5 °F 55.0 °F 69% 30.09 in 10.0 mi NW 8.1 mph - N/A   Overcast
1:57 PM 66.0 °F 55.4 °F 69% 30.09 in 10.0 mi NNW 8.1 mph - N/A   Overcast
2:15 PM 65.7 °F 54.3 °F 67% 30.09 in 10.0 mi NW 10.4 mph - N/A   Overcast
2:16 PM 65.7 °F 54.3 °F 67% 30.09 in 10.0 mi NW 9.2 mph - N/A   Overcast
2:35 PM 65.8 °F 54.9 °F 68% 30.10 in 10.0 mi NNW 8.1 mph - N/A   Overcast
2:36 PM 65.8 °F 54.9 °F 68% 30.10 in 10.0 mi North 8.1 mph - N/A   Overcast
2:55 PM 66.2 °F 55.0 °F 67% 30.10 in 10.0 mi NNW 9.2 mph - N/A   Overcast
3:00 PM 66.2 °F 55.4 °F 68% 30.10 in 10.0 mi NW 9.2 mph - N/A   Overcast
3:18 PM 65.8 °F 55.0 °F 68% 30.10 in 10.0 mi NW 8.1 mph - N/A   Overcast
3:36 PM 65.7 °F 54.5 °F 67% 30.10 in 10.0 mi NW 9.2 mph - N/A   Overcast
3:55 PM 66.2 °F 55.4 °F 68% 30.10 in 10.0 mi NW 11.5 mph - N/A   Overcast
3:56 PM 66.4 °F 55.4 °F 68% 30.10 in 10.0 mi NW 11.5 mph - N/A   Overcast
4:15 PM 66.4 °F 54.7 °F 66% 30.11 in 10.0 mi NW 9.2 mph - N/A   Overcast
4:39 PM 65.8 °F 54.1 °F 66% 30.11 in 10.0 mi NW 9.2 mph - N/A   Overcast
4:57 PM 66.2 °F 54.9 °F 67% 30.11 in 10.0 mi NW 8.1 mph - N/A   Overcast
5:15 PM 65.1 °F 53.4 °F 66% 30.11 in 10.0 mi NW 9.2 mph - N/A   Overcast
5:35 PM 64.4 °F 53.8 °F 68% 30.11 in 10.0 mi NNW 8.1 mph - N/A   Overcast
5:36 PM 64.4 °F 53.6 °F 68% 30.11 in 10.0 mi NNW 6.9 mph - N/A   Overcast
5:55 PM 64.8 °F 53.4 °F 67% 30.11 in 10.0 mi NNW 9.2 mph - N/A   Overcast
6:00 PM 65.1 °F 53.6 °F 66% 30.12 in 10.0 mi NNW 10.4 mph - N/A   Overcast
6:18 PM 64.4 °F 53.2 °F 67% 30.11 in 10.0 mi North 9.2 mph - N/A   Overcast
6:36 PM 63.9 °F 52.9 °F 67% 30.11 in 10.0 mi North 6.9 mph - N/A   Overcast
6:55 PM 63.5 °F 53.1 °F 69% 30.11 in 10.0 mi North 5.8 mph - N/A   Overcast
7:15 PM 63.1 °F 52.7 °F 69% 30.11 in 10.0 mi NNW 4.6 mph - N/A   Overcast
7:16 PM 63.1 °F 52.7 °F 69% 30.11 in 10.0 mi NNW 3.5 mph - N/A   Overcast
7:39 PM 62.6 °F 52.0 °F 68% 30.13 in 10.0 mi NW 6.9 mph - N/A   Overcast
7:57 PM 60.6 °F 51.4 °F 72% 30.13 in 10.0 mi NW 3.5 mph - N/A   Mostly Cloudy
8:15 PM 58.6 °F 51.1 °F 76% 30.13 in 10.0 mi Calm Calm - N/A   Scattered Clouds
8:35 PM 57.0 °F 51.3 °F 81% 30.14 in 10.0 mi Calm Calm - N/A   Mostly Cloudy
8:55 PM 56.5 °F 52.2 °F 85% 30.14 in 10.0 mi Calm Calm - N/A   Overcast
9:00 PM 57.0 °F 51.8 °F 83% 30.14 in 10.0 mi Calm Calm - N/A   Overcast
9:18 PM 56.3 °F 52.9 °F 88% 30.14 in 10.0 mi Calm Calm - N/A   Overcast
9:36 PM 57.0 °F 53.1 °F 87% 30.15 in 10.0 mi Calm Calm - N/A   Overcast
9:55 PM 56.7 °F 53.8 °F 90% 30.15 in 10.0 mi Calm Calm - N/A   Overcast
10:15 PM 57.4 °F 53.1 °F 85% 30.15 in 10.0 mi Calm Calm - N/A   Overcast
10:39 PM 56.1 °F 52.3 °F 87% 30.15 in 10.0 mi Calm Calm - N/A   Scattered Clouds
10:57 PM 56.3 °F 50.9 °F 82% 30.14 in 10.0 mi North 3.5 mph - N/A   Clear
11:15 PM 55.8 °F 50.9 °F 84% 30.14 in 10.0 mi Calm Calm - N/A   Clear
11:16 PM 55.8 °F 50.7 °F 83% 30.14 in 10.0 mi Calm Calm - N/A   Clear
11:35 PM 54.5 °F 50.2 °F 85% 30.14 in 10.0 mi Calm Calm - N/A   Clear
11:55 PM 52.7 °F 50.0 °F 91% 30.14 in 10.0 mi Calm Calm - N/A   Clear